Погода в Адиюхе

Россия / Кабардино-Балкарская Республика     43°31′03″N   43°42′17″E
темп.,
°C
ветер,
м/с
пор.,
м/с
влажн.,
%
обл.,
%
осадки,
мм/ч
давл.,
гПа
погр.,
м
11 апреля, вс
вс1100:00+6св2281100 0.1 1020270
03:00+5св1187100 0.4 1020178
06:00+5вюв118499 0.0 1020134
09:00+8всв227498 0.0 1019596
12:00+10вюв1267100 0.0 1018924
15:00+12св2262100 0.0 1016950
18:00+11св2270100 0.0 1016114
21:00+10з2274100 0.0 101615
12 апреля, пн
пн1200:00+8зюз228119 0.0 101620
03:00+8зюз228298 0.0 101616
06:00+8ююз228195 0.0 101817
09:00+12с236697 0.0 1019562
12:00+12ссз456897 0.0 1019852
15:00+11ссз4576100 0.0 1021675
18:00+9с1281100 0.0 1022222
21:00+9в0086100 0.1 102246
13 апреля, вт
вт1300:00+8в1188100 0.1 102267
03:00+8в009293 1.2 102194
06:00+8з118998 0.0 102161
09:00+11св217870 0.1 1021473
12:00+12св3276100 0.1 1021703
15:00+11с2276100 0.1 1021487
18:00+10зсз1282100 0.0 102075
21:00+10з1187100 0.3 102017
14 апреля, ср
ср1400:00+9с1191100 0.1 101779
03:00+9з2394100 4.2 1017147
06:00+9ююв1191100 0.1 101717
09:00+11св2278100 0.1 1017403
12:00+14с4464100 0.1 10161258
15:00+12с457399 0.3 1017814
18:00+11з1380100 0.9 1017143
21:00+10в1184100 0.9 101827
15 апреля, чт
чт1500:00+10юз228584 0.0 101735
03:00+9сз238393 0.0 1017103
06:00+9юз118411 0.0 101716
09:00+13всв21633 0.0 1016782
12:00+17св225220 0.0 10141378
15:00+18св22464 0.0 10131417
18:00+17св22567 0.0 101319
21:00+13зюз2267100 0.4 101517